THORAD AGENA D DEB, 19391

Orbit data source: Space-Track

THORAD AGENA D DEB, 19391 is space debris in SSO originally from a launch on Wed, 08 Apr 1970 UTC launched from the Air Force Western Test Range (AFWTR). Debris objects in space refer to the collection of defunct objects orbiting the Earth. Examples of debris include non-operational satellites, rocket bodies, and fragments generated from explosions, collisions, or faulty payload assembly.

Loading next visibility...
Identifier
19391, 1970-025PZ
Orbit
SSO
Country
Flag of USUS
Related business
Manufacturer
Unknown
Mission
Spacecraft
Bus & Motor
Unknown
Mass
Unknown
Launch date (UTC)
1970-04-08 (56 years ago)
Launch vehicle
Unknown
Launch site
Air Force Western Test Range (AFWTR)
Object type
Payload
Rocket body
Debris
Shape & HBR
Unknown shape, 1.1 m
Radar Cross Section
Medium (>0.1 m² and <1 m²)

Expand to show TLE details & history
Last TLE update: 8 hours ago

TLE from 8 hours ago
0 THORAD AGENA D DEB
1 19391U 70025PZ  26256.07194345  .00001063  00000-0  67221-3 0  9992
2 19391  98.7117 106.9273 0144078  51.6239  98.6584 14.01101339931394
Epoch: 2026-09-13T01:43Z
TLE epoch observation values (Epoch: 2026-09-13T01:43:35.914Z)
Latitude
27.77962°
Longitude
-86.43856°
Altitude
910.607 km
Speed
7.39 km/s
True Right ascension
19h 26m 07s
True Declination
27° 38' 28"
Sunlit
Object was in daylight at epoch
Visualization orbit readout
Latitude
Unknown
Longitude
Unknown
Altitude
Unknown
Speed
Unknown
Apparent Right ascension
Unknown
Apparent Declination
Unknown
Sunlit
N/A
Visualization observer readout
Local Sidereal Time
02:10:05
Azimuth
Unknown
Elevation
Unknown
Doppler factor
Unknown
Orbital elements
Apogee altitude
991.844 km
Perigee altitude
782.49 km
Semi-major axis
7,265.304 km
Eccentricity
0.01441
Inclination
98.7117°
RAAN
106.9273°
Arg. of periapsis
51.6239°
True anomaly
100.28596°
Mean anomaly
98.6584°
Eccentric anomaly
99.47265°
Mean motion
3.50479 °/min
Orbital period
102.72 mins
BSTAR
0.00067221
Loading maneuver chart data...
Computing Atmospheric mass density...

Documentation

Showing up to 5 results
|